• In Hungary
  • List of Countries
  • For 7 days
  • Water Temperature
  • Satellite Maps
  • Weather Map
  • News
  • Weather Widgets
  • user-avatar
    Login

    Hourly Weather Dżakarta

    Today, 21 January, Sunday

    Time Temperature Precipitation Wind Pressure Humidity
    00:00 +28°C° 0 mm 6 mps 754 mmHg 81%
    01:00 +28°C° 0 mm 4 mps 754 mmHg 83%
    02:00 +28°C° 0.1 mm 4 mps 754 mmHg 83%
    03:00 +28°C° 0.1 mm 5 mps 754 mmHg 83%
    04:00 +28°C° 0.1 mm 5 mps 753 mmHg 83%
    05:00 +28°C° 0.1 mm 5 mps 754 mmHg 82%
    06:00 +28°C° 0.1 mm 5 mps 754 mmHg 81%
    07:00 +29°C° 0 mm 4 mps 754 mmHg 76%
    08:00 +30°C° 0 mm 4 mps 754 mmHg 71%
    09:00 +32°C° 0 mm 4 mps 754 mmHg 66%
    10:00 +33°C° 0 mm 4 mps 754 mmHg 60%
    11:00 +34°C° 0 mm 5 mps 754 mmHg 57%
    12:00 +35°C° 0 mm 5 mps 753 mmHg 54%
    13:00 +35°C° 0 mm 6 mps 753 mmHg 52%
    14:00 +35°C° 0 mm 6 mps 752 mmHg 54%
    15:00 +34°C° 0 mm 6 mps 752 mmHg 56%
    16:00 +34°C° 0 mm 6 mps 752 mmHg 58%
    17:00 +33°C° 0 mm 6 mps 752 mmHg 63%
    18:00 +32°C° 0 mm 5 mps 752 mmHg 68%
    19:00 +30°C° 0 mm 5 mps 753 mmHg 72%
    20:00 +30°C° 0 mm 6 mps 753 mmHg 74%
    21:00 +29°C° 0 mm 6 mps 753 mmHg 75%
    22:00 +29°C° 0 mm 6 mps 754 mmHg 76%
    23:00 +29°C° 0 mm 6 mps 754 mmHg 77%

    Tomorrow, 22 January, Monday

    Time Temperature Precipitation Wind Pressure Humidity
    00:00 +29°C° 0 mm 6 mps 753 mmHg 78%
    01:00 +29°C° 0 mm 6 mps 753 mmHg 79%
    02:00 +29°C° 0.1 mm 6 mps 753 mmHg 79%
    03:00 +28°C° 0.1 mm 6 mps 753 mmHg 80%
    04:00 +28°C° 0.1 mm 6 mps 753 mmHg 80%
    05:00 +28°C° 0.7 mm 6 mps 753 mmHg 80%
    06:00 +29°C° 0.7 mm 6 mps 753 mmHg 80%
    07:00 +29°C° 0.7 mm 6 mps 754 mmHg 79%
    08:00 +29°C° 1 mm 6 mps 754 mmHg 76%
    09:00 +30°C° 1 mm 6 mps 754 mmHg 72%
    10:00 +32°C° 1 mm 6 mps 754 mmHg 69%
    11:00 +32°C° 0.8 mm 5 mps 754 mmHg 68%
    12:00 +32°C° 0.8 mm 5 mps 753 mmHg 67%
    13:00 +33°C° 0.8 mm 5 mps 753 mmHg 66%
    14:00 +32°C° 0.4 mm 5 mps 752 mmHg 66%
    15:00 +32°C° 0.4 mm 5 mps 752 mmHg 67%
    16:00 +32°C° 0.4 mm 5 mps 751 mmHg 67%
    17:00 +30°C° 0.2 mm 5 mps 752 mmHg 71%
    18:00 +29°C° 0.2 mm 4 mps 752 mmHg 75%
    19:00 +29°C° 0.2 mm 4 mps 752 mmHg 78%
    20:00 +29°C° 0.1 mm 5 mps 753 mmHg 79%
    21:00 +28°C° 0.1 mm 5 mps 753 mmHg 80%
    22:00 +28°C° 0.1 mm 5 mps 754 mmHg 81%
    23:00 +28°C° 0.1 mm 5 mps 753 mmHg 81%

    Day after tomorrow, 23 January, Tuesday

    Time Temperature Precipitation Wind Pressure Humidity
    00:00 +28°C° 0.1 mm 5 mps 753 mmHg 82%
    01:00 +28°C° 0.1 mm 5 mps 753 mmHg 82%
    02:00 +28°C° 0.5 mm 5 mps 753 mmHg 82%
    03:00 +28°C° 0.5 mm 5 mps 752 mmHg 82%
    04:00 +28°C° 0.5 mm 5 mps 752 mmHg 83%
    05:00 +28°C° 0.4 mm 4 mps 753 mmHg 82%
    06:00 +28°C° 0.4 mm 4 mps 753 mmHg 81%
    07:00 +28°C° 0.4 mm 3 mps 753 mmHg 80%
    08:00 +29°C° 0.2 mm 3 mps 754 mmHg 74%
    09:00 +30°C° 0.2 mm 3 mps 754 mmHg 68%
    10:00 +33°C° 0.2 mm 3 mps 754 mmHg 61%
    11:00 +33°C° 0.8 mm 3 mps 754 mmHg 59%
    12:00 +34°C° 0.8 mm 4 mps 753 mmHg 56%
    13:00 +35°C° 0.8 mm 4 mps 753 mmHg 53%
    14:00 +35°C° 0.5 mm 4 mps 752 mmHg 54%
    15:00 +34°C° 0.5 mm 4 mps 752 mmHg 56%
    16:00 +34°C° 0.5 mm 4 mps 751 mmHg 57%
    17:00 +33°C° 0.6 mm 4 mps 752 mmHg 63%
    18:00 +30°C° 0.6 mm 3 mps 752 mmHg 68%
    19:00 +29°C° 0.6 mm 2 mps 753 mmHg 73%
    20:00 +29°C° 0.3 mm 2 mps 753 mmHg 75%
    21:00 +29°C° 0.3 mm 2 mps 754 mmHg 76%
    22:00 +29°C° 0.3 mm 2 mps 754 mmHg 78%
    23:00 +28°C° 0.3 mm 1 mps 754 mmHg 78%

    24 January, Wednesday

    Time Temperature Precipitation Wind Pressure Humidity
    00:00 +28°C° 0.3 mm 1 mps 754 mmHg 79%
    01:00 +28°C° 0.3 mm 1 mps 753 mmHg 80%
    02:00 +28°C° 0.1 mm 1 mps 753 mmHg 80%
    03:00 +28°C° 0.1 mm 1 mps 753 mmHg 81%
    04:00 +27°C° 0.1 mm 1 mps 752 mmHg 82%
    05:00 +28°C° 0.6 mm 1 mps 753 mmHg 80%
    06:00 +28°C° 0.6 mm 1 mps 753 mmHg 79%
    07:00 +28°C° 0.6 mm 1 mps 754 mmHg 77%
    08:00 +30°C° 0.1 mm 1 mps 754 mmHg 70%
    09:00 +32°C° 0.1 mm 1 mps 754 mmHg 63%
    10:00 +34°C° 0.1 mm 2 mps 754 mmHg 56%
    11:00 +35°C° 0.1 mm 2 mps 754 mmHg 54%
    12:00 +35°C° 0.1 mm 3 mps 753 mmHg 52%
    13:00 +36°C° 0.1 mm 4 mps 752 mmHg 50%
    14:00 +35°C° 0.5 mm 4 mps 752 mmHg 51%
    15:00 +35°C° 0.5 mm 4 mps 751 mmHg 51%
    16:00 +35°C° 0.5 mm 4 mps 751 mmHg 52%
    17:00 +34°C° 0.9 mm 4 mps 751 mmHg 57%
    18:00 +31°C° 0.9 mm 3 mps 752 mmHg 62%
    19:00 +30°C° 0.9 mm 3 mps 752 mmHg 67%
    20:00 +30°C° 0.1 mm 4 mps 753 mmHg 70%
    21:00 +29°C° 0.1 mm 4 mps 754 mmHg 72%
    22:00 +29°C° 0.1 mm 4 mps 754 mmHg 75%
    23:00 +29°C° 0.1 mm 5 mps 754 mmHg 75%

    25 January, Thursday

    Time Temperature Precipitation Wind Pressure Humidity
    00:00 +29°C° 0.1 mm 5 mps 753 mmHg 75%
    01:00 +29°C° 0.1 mm 5 mps 753 mmHg 76%
    02:00 +28°C° 0.2 mm 5 mps 753 mmHg 77%
    03:00 +28°C° 0.2 mm 5 mps 752 mmHg 78%
    04:00 +28°C° 0.2 mm 5 mps 752 mmHg 79%
    05:00 +28°C° 0.1 mm 5 mps 753 mmHg 79%
    06:00 +28°C° 0.1 mm 5 mps 753 mmHg 79%
    07:00 +28°C° 0.1 mm 4 mps 754 mmHg 79%
    08:00 +29°C° 0.1 mm 4 mps 754 mmHg 74%
    09:00 +30°C° 0.1 mm 5 mps 754 mmHg 69%
    10:00 +32°C° 0.1 mm 5 mps 754 mmHg 64%
    11:00 +33°C° 0.2 mm 5 mps 754 mmHg 61%
    12:00 +34°C° 0.2 mm 5 mps 753 mmHg 58%
    13:00 +34°C° 0.2 mm 5 mps 752 mmHg 54%
    14:00 +34°C° 0.1 mm 5 mps 752 mmHg 55%
    15:00 +34°C° 0.1 mm 5 mps 751 mmHg 56%
    16:00 +33°C° 0.1 mm 5 mps 751 mmHg 57%
    17:00 +32°C° 0 mm 5 mps 752 mmHg 62%
    18:00 +30°C° 0 mm 4 mps 752 mmHg 67%
    19:00 +29°C° 0 mm 4 mps 752 mmHg 72%
    20:00 +29°C° 0 mm 4 mps 753 mmHg 74%
    21:00 +29°C° 0 mm 4 mps 753 mmHg 75%
    22:00 +29°C° 0 mm 4 mps 754 mmHg 77%
    23:00 +29°C° 0 mm 5 mps 753 mmHg 78%

    26 January, Friday

    Time Temperature Precipitation Wind Pressure Humidity
    00:00 +28°C° 0 mm 5 mps 753 mmHg 79%
    01:00 +28°C° 0 mm 5 mps 753 mmHg 80%
    02:00 +28°C° 0.2 mm 5 mps 752 mmHg 80%
    03:00 +28°C° 0.2 mm 5 mps 752 mmHg 81%
    04:00 +28°C° 0.2 mm 5 mps 752 mmHg 81%
    05:00 +28°C° 0.3 mm 5 mps 752 mmHg 81%
    06:00 +28°C° 0.3 mm 5 mps 753 mmHg 81%
    07:00 +28°C° 0.3 mm 4 mps 753 mmHg 81%
    08:00 +29°C° 0.2 mm 5 mps 753 mmHg 78%
    09:00 +29°C° 0.2 mm 5 mps 753 mmHg 76%
    10:00 +30°C° 0.2 mm 5 mps 754 mmHg 74%
    11:00 +30°C° 0.5 mm 5 mps 753 mmHg 73%
    12:00 +32°C° 0.5 mm 5 mps 753 mmHg 72%
    13:00 +32°C° 0.5 mm 5 mps 752 mmHg 71%
    14:00 +32°C° 0.5 mm 5 mps 752 mmHg 71%
    15:00 +32°C° 0.5 mm 5 mps 751 mmHg 71%
    16:00 +32°C° 0.5 mm 5 mps 751 mmHg 71%
    17:00 +30°C° 0.5 mm 5 mps 752 mmHg 74%
    18:00 +29°C° 0.5 mm 5 mps 752 mmHg 77%
    19:00 +29°C° 0.5 mm 5 mps 753 mmHg 80%
    20:00 +29°C° 0.2 mm 5 mps 753 mmHg 81%
    21:00 +28°C° 0.2 mm 5 mps 753 mmHg 81%
    22:00 +28°C° 0.2 mm 5 mps 754 mmHg 82%
    23:00 +28°C° 0.1 mm 6 mps 753 mmHg 82%
    Show more